TimeCST,TemperatureF,Dew PointF,Humidity,Sea Level PressureIn,VisibilityMPH,Wind Direction,Wind SpeedMPH,Gust SpeedMPH,PrecipitationIn,Events,Conditions,WindDirDegrees,DateUTC
12:53 AM,28.0,18.0,66,30.31,10.0,SSE,4.6,-,N/A,,Clear,150,2013-02-02 06:53:00
1:53 AM,30.9,18.0,59,30.31,10.0,Calm,Calm,-,N/A,,Mostly Cloudy,0,2013-02-02 07:53:00
3:53 AM,30.9,17.1,57,30.27,10.0,South,4.6,-,N/A,,Overcast,190,2013-02-02 09:53:00
4:53 AM,30.9,21.0,67,30.27,9.0,South,3.5,-,0.01,,Overcast,190,2013-02-02 10:53:00
6:53 AM,30.0,19.9,66,30.24,10.0,South,6.9,-,N/A,,Partly Cloudy,180,2013-02-02 12:53:00
7:53 AM,30.9,21.0,67,30.23,10.0,South,8.1,-,N/A,,Clear,180,2013-02-02 13:53:00
8:53 AM,35.1,21.9,59,30.22,10.0,South,12.7,-,N/A,,Clear,190,2013-02-02 14:53:00
9:53 AM,37.0,25.0,62,30.22,10.0,SW,10.4,-,N/A,,Overcast,220,2013-02-02 15:53:00
10:53 AM,39.0,24.1,55,30.21,10.0,WSW,12.7,-,N/A,,Mostly Cloudy,240,2013-02-02 16:53:00
11:53 AM,41.0,27.0,57,30.21,10.0,WSW,10.4,-,N/A,,Overcast,250,2013-02-02 17:53:00
12:53 PM,44.1,27.0,51,30.17,10.0,West,11.5,-,N/A,,Overcast,280,2013-02-02 18:53:00
1:53 PM,45.0,28.9,53,30.15,10.0,West,9.2,-,N/A,,Partly Cloudy,280,2013-02-02 19:53:00
2:53 PM,48.0,30.0,50,30.16,10.0,WNW,9.2,-,N/A,,Partly Cloudy,290,2013-02-02 20:53:00
3:53 PM,46.9,30.0,52,30.16,10.0,WNW,9.2,-,N/A,,Clear,290,2013-02-02 21:53:00
4:53 PM,46.9,30.0,52,30.16,10.0,WSW,4.6,-,N/A,,Clear,250,2013-02-02 22:53:00
5:53 PM,41.0,33.1,73,30.17,10.0,SSW,5.8,-,N/A,,Clear,210,2013-02-02 23:53:00
6:53 PM,37.9,32.0,79,30.18,10.0,SSW,6.9,-,N/A,,Clear,210,2013-02-03 00:53:00
7:53 PM,39.0,32.0,76,30.19,10.0,SW,5.8,-,N/A,,Clear,230,2013-02-03 01:53:00
8:53 PM,41.0,33.1,73,30.18,10.0,WSW,5.8,-,N/A,,Clear,240,2013-02-03 02:53:00
9:53 PM,39.0,32.0,76,30.18,10.0,WSW,5.8,-,N/A,,Partly Cloudy,250,2013-02-03 03:53:00
10:53 PM,36.0,30.9,82,30.17,10.0,SW,6.9,-,N/A,,Clear,230,2013-02-03 04:53:00
11:53 PM,36.0,30.0,79,30.15,10.0,SW,8.1,-,N/A,,Clear,220,2013-02-03 05:53:00